Find Starlink 38358

NORAD ID: 100560 Int'l Des: 2026-200 Owner: SPXS Country: US Constellation: starlink operational

Current View

Loading 3D Globe...

About Starlink 38358

Starlink 38358 (NORAD 100560) is a starlink constellation satellite launched Sep 2, 2026 by SPXS of US. with a mass of 575.00 kg.

Upcoming Passes

Passes for default location (London). Set your location on the main map for personalized predictions.

Altitude History

Loading altitude history...

Two-Line Element Set

1 A0560U 26200AC 26263.79853549 .00154885 00000-0 74111-3 0 9998
2 A0560 69.9993 134.4101 0003210 269.9094 90.1740 15.82175719 2938
Epoch: Sep 20, 2026 • Age: 10 hours

Current Status

Altitude 332.6 km
Apogee / Perigee N/A
Velocity 7.71 km/s
Sub-Earth Point -27.37°S, 37.29°E
Launch Date Sep 2, 2026
Age 18 days
Type internet

Technical Details

Classification Payload
Mass 575.00 kg
Dry Mass 530.00 kg
Length 0.30 m
Span 29.00 m
Shape ? Box + pan
Manufacturer SPXS
Bus Type Starlink V2MO
Phase Status In Orbit
Owner/State SPXS/US

Most Searched